TimeEDT,TemperatureF,Dew PointF,Humidity,Sea Level PressureIn,VisibilityMPH,Wind Direction,Wind SpeedMPH,Gust SpeedMPH,PrecipitationIn,Events,Conditions,WindDirDegrees,DateUTC
12:15 AM,70.5,58.1,65,30.18,10.0,WSW,4.6,-,N/A,,Clear,240,2014-06-03 04:15:00
12:35 AM,70.5,58.1,65,30.18,10.0,WSW,6.9,-,N/A,,Clear,250,2014-06-03 04:35:00
1:15 AM,69.8,57.7,65,30.18,10.0,WSW,4.6,-,N/A,,Clear,250,2014-06-03 05:15:00
1:35 AM,69.1,58.1,68,30.18,10.0,West,8.1,-,N/A,,Clear,270,2014-06-03 05:35:00
1:55 AM,68.5,58.3,70,30.18,10.0,West,5.8,-,N/A,,Clear,270,2014-06-03 05:55:00
2:15 AM,68.5,57.6,68,30.17,10.0,SSW,3.5,-,N/A,,Clear,210,2014-06-03 06:15:00
2:35 AM,68.9,56.8,65,30.17,10.0,SW,5.8,-,N/A,,Clear,230,2014-06-03 06:35:00
2:55 AM,68.9,56.7,65,30.17,10.0,WSW,5.8,-,N/A,,Clear,240,2014-06-03 06:55:00
3:15 AM,68.4,56.8,67,30.17,10.0,WSW,5.8,-,N/A,,Clear,240,2014-06-03 07:15:00
3:35 AM,68.0,56.7,67,30.17,10.0,SW,6.9,-,N/A,,Scattered Clouds,220,2014-06-03 07:35:00
3:55 AM,68.0,57.0,68,30.17,10.0,SW,8.1,-,N/A,,Scattered Clouds,220,2014-06-03 07:55:00
4:15 AM,68.0,57.6,69,30.17,10.0,SW,8.1,-,N/A,,Overcast,220,2014-06-03 08:15:00
4:35 AM,68.0,58.1,71,30.17,10.0,SW,4.6,-,N/A,,Overcast,230,2014-06-03 08:35:00
4:55 AM,68.0,58.3,71,30.17,10.0,WSW,5.8,-,N/A,,Overcast,240,2014-06-03 08:55:00
5:15 AM,68.0,58.5,71,30.17,10.0,Calm,Calm,-,N/A,,Overcast,0,2014-06-03 09:15:00
5:35 AM,67.5,58.5,73,30.17,10.0,SW,4.6,-,N/A,,Overcast,230,2014-06-03 09:35:00
5:55 AM,67.3,58.6,74,30.17,10.0,SW,4.6,-,N/A,,Overcast,230,2014-06-03 09:55:00
6:15 AM,67.3,58.6,74,30.17,10.0,SW,5.8,-,N/A,,Overcast,230,2014-06-03 10:15:00
6:35 AM,67.5,58.6,73,30.17,10.0,SW,4.6,-,N/A,,Overcast,230,2014-06-03 10:35:00
6:55 AM,67.5,58.8,74,30.18,10.0,WSW,3.5,-,N/A,,Overcast,240,2014-06-03 10:55:00
7:15 AM,67.5,59.0,74,30.18,10.0,WSW,4.6,-,N/A,,Overcast,240,2014-06-03 11:15:00
7:35 AM,67.6,59.0,74,30.18,10.0,WSW,8.1,-,N/A,,Overcast,240,2014-06-03 11:35:00
7:55 AM,67.3,58.5,73,30.18,10.0,WSW,8.1,-,N/A,,Overcast,240,2014-06-03 11:55:00
8:15 AM,67.3,58.5,73,30.18,10.0,WSW,9.2,-,N/A,,Overcast,250,2014-06-03 12:15:00
8:35 AM,67.3,58.3,73,30.18,10.0,WSW,6.9,-,N/A,,Overcast,240,2014-06-03 12:35:00
8:55 AM,68.4,59.0,72,30.19,10.0,WSW,9.2,-,N/A,,Overcast,240,2014-06-03 12:55:00
9:15 AM,67.6,58.3,72,30.18,10.0,WSW,6.9,-,N/A,,Overcast,250,2014-06-03 13:15:00
9:35 AM,67.3,58.3,73,30.19,10.0,West,9.2,-,N/A,,Overcast,270,2014-06-03 13:35:00
9:55 AM,66.2,59.4,79,30.19,10.0,West,5.8,-,N/A,,Overcast,260,2014-06-03 13:55:00
10:15 AM,64.8,61.0,88,30.18,4.0,SSW,5.8,-,0.05,Rain,Rain,200,2014-06-03 14:15:00
10:35 AM,64.4,60.8,88,30.19,10.0,SW,6.9,-,0.06,Rain,Light Rain,230,2014-06-03 14:35:00
10:55 AM,64.8,61.3,89,30.19,10.0,SW,4.6,-,0.06,,Overcast,230,2014-06-03 14:55:00
11:15 AM,64.2,61.0,89,30.19,7.0,SSW,6.9,-,N/A,,Drizzle,210,2014-06-03 15:15:00
11:35 AM,64.8,61.5,89,30.19,10.0,SW,6.9,-,N/A,,Overcast,230,2014-06-03 15:35:00
11:55 AM,65.5,61.7,88,30.19,10.0,WSW,5.8,-,N/A,,Overcast,250,2014-06-03 15:55:00
12:15 PM,66.4,62.1,86,30.19,10.0,WSW,5.8,-,N/A,,Overcast,250,2014-06-03 16:15:00
12:35 PM,66.9,62.4,85,30.18,10.0,SW,6.9,-,N/A,,Overcast,230,2014-06-03 16:35:00
12:55 PM,66.6,62.8,88,30.18,10.0,SW,4.6,-,N/A,,Overcast,230,2014-06-03 16:55:00
1:15 PM,67.6,63.3,86,30.17,10.0,SW,5.8,-,N/A,,Overcast,220,2014-06-03 17:15:00
1:35 PM,69.1,63.7,83,30.17,10.0,WSW,5.8,-,N/A,,Overcast,240,2014-06-03 17:35:00
1:55 PM,69.3,64.0,83,30.17,10.0,West,5.8,-,N/A,,Overcast,280,2014-06-03 17:55:00
2:15 PM,69.8,64.0,82,30.16,10.0,WSW,8.1,-,N/A,,Overcast,250,2014-06-03 18:15:00
2:35 PM,70.2,64.2,81,30.16,10.0,West,4.6,-,N/A,,Overcast,270,2014-06-03 18:35:00
2:55 PM,70.9,64.6,80,30.16,10.0,West,4.6,-,N/A,,Overcast,270,2014-06-03 18:55:00
3:15 PM,70.5,64.8,82,30.15,10.0,WNW,3.5,-,N/A,,Overcast,290,2014-06-03 19:15:00
3:35 PM,71.2,64.6,79,30.14,10.0,Calm,Calm,-,N/A,,Overcast,0,2014-06-03 19:35:00
3:55 PM,73.0,65.3,77,30.14,10.0,South,5.8,-,N/A,,Overcast,190,2014-06-03 19:55:00
4:15 PM,72.9,65.1,77,30.13,10.0,Calm,Calm,-,N/A,,Mostly Cloudy,0,2014-06-03 20:15:00
4:35 PM,74.8,65.5,73,30.12,10.0,SW,4.6,-,N/A,,Overcast,230,2014-06-03 20:35:00
4:55 PM,75.4,64.6,69,30.12,10.0,South,4.6,-,N/A,,Scattered Clouds,190,2014-06-03 20:55:00
5:15 PM,75.2,64.4,69,30.11,10.0,SW,4.6,-,N/A,,Scattered Clouds,230,2014-06-03 21:15:00
5:35 PM,74.8,64.4,70,30.11,10.0,SW,3.5,-,N/A,,Mostly Cloudy,230,2014-06-03 21:35:00
5:55 PM,75.2,64.2,69,30.11,10.0,WSW,5.8,-,N/A,,Mostly Cloudy,250,2014-06-03 21:55:00
6:15 PM,75.2,64.6,69,30.10,10.0,WSW,3.5,-,N/A,,Mostly Cloudy,240,2014-06-03 22:15:00
6:35 PM,75.2,64.6,69,30.08,10.0,SW,5.8,-,N/A,,Mostly Cloudy,230,2014-06-03 22:35:00
6:55 PM,74.3,64.6,72,30.08,10.0,WSW,4.6,-,N/A,,Mostly Cloudy,240,2014-06-03 22:55:00
7:15 PM,74.7,64.4,70,30.07,10.0,WSW,6.9,-,N/A,,Scattered Clouds,240,2014-06-03 23:15:00
7:35 PM,74.3,64.8,72,30.08,10.0,WSW,3.5,-,N/A,,Clear,240,2014-06-03 23:35:00
7:55 PM,73.6,64.8,74,30.08,10.0,WSW,5.8,-,N/A,,Clear,240,2014-06-03 23:55:00
8:15 PM,72.9,64.8,76,30.08,10.0,WSW,4.6,-,N/A,,Clear,250,2014-06-04 00:15:00
8:35 PM,71.8,64.8,78,30.08,10.0,SW,8.1,-,N/A,,Clear,230,2014-06-04 00:35:00
8:55 PM,71.6,64.8,79,30.08,10.0,SW,8.1,-,N/A,,Clear,220,2014-06-04 00:55:00
9:15 PM,71.1,64.9,81,30.08,10.0,SW,4.6,-,N/A,,Clear,220,2014-06-04 01:15:00
9:35 PM,70.7,64.8,81,30.08,10.0,WSW,4.6,-,N/A,,Clear,240,2014-06-04 01:35:00
9:55 PM,70.7,64.6,81,30.09,10.0,SSW,3.5,-,N/A,,Clear,210,2014-06-04 01:55:00
10:15 PM,70.0,64.6,83,30.10,10.0,SW,4.6,-,N/A,,Clear,220,2014-06-04 02:15:00
10:35 PM,70.2,64.4,82,30.09,10.0,SW,5.8,-,N/A,,Clear,220,2014-06-04 02:35:00
10:55 PM,70.5,64.4,81,30.10,10.0,SW,6.9,-,N/A,,Clear,230,2014-06-04 02:55:00
11:15 PM,69.3,64.4,84,30.10,10.0,West,4.6,-,N/A,,Clear,270,2014-06-04 03:15:00
11:35 PM,69.3,64.4,84,30.09,10.0,WSW,6.9,-,N/A,,Clear,250,2014-06-04 03:35:00
11:55 PM,69.3,64.4,84,30.08,10.0,SW,8.1,-,N/A,,Clear,230,2014-06-04 03:55:00